When you browse on this site, cookies collect data to enhance your experience and personalize the content and advertising you see.
Visit our Privacy Policy to learn more. By continuing to use the site, you agree to this use of cookies and data.
  • In United Kingdom
  • List of Countries
  • For 7 days
  • Water Temperature
  • Satellite Maps
  • Weather Map
  • Weather Widgets
  • user-avatar
    Login

    Hourly Weather Goycay

    Today, 25 March, Monday

    Time Temperature Precipitation Wind Pressure Humidity
    00:00 +9°C° 0.2 mm 3 mps 750 mmHg 72%
    01:00 +9°C° 0 mm 3 mps 750 mmHg 71%
    02:00 +9°C° 0 mm 3 mps 750 mmHg 71%
    03:00 +9°C° 0 mm 3 mps 750 mmHg 70%
    04:00 +8°C° 0 mm 2 mps 750 mmHg 70%
    05:00 +8°C° 0 mm 2 mps 750 mmHg 70%
    06:00 +8°C° 0 mm 2 mps 751 mmHg 70%
    07:00 +8°C° 0.1 mm 2 mps 751 mmHg 71%
    08:00 +8°C° 0.1 mm 2 mps 751 mmHg 72%
    09:00 +9°C° 0 mm 1 mps 751 mmHg 74%
    10:00 +8°C° 0.3 mm 2 mps 751 mmHg 78%
    11:00 +7°C° 0.3 mm 3 mps 751 mmHg 82%
    12:00 +6°C° 0.3 mm 4 mps 751 mmHg 85%
    13:00 +7°C° 0.8 mm 3 mps 751 mmHg 84%
    14:00 +7°C° 0.8 mm 3 mps 751 mmHg 83%
    15:00 +7°C° 0.8 mm 3 mps 751 mmHg 82%
    16:00 +7°C° 0.3 mm 2 mps 752 mmHg 82%
    17:00 +6°C° 0.3 mm 2 mps 752 mmHg 83%
    18:00 +7°C° 0.3 mm 1 mps 752 mmHg 83%
    19:00 +7°C° 0.2 mm 1 mps 753 mmHg 84%
    20:00 +7°C° 0.2 mm 1 mps 753 mmHg 85%
    21:00 +7°C° 0.2 mm 1 mps 753 mmHg 86%
    22:00 +7°C° 0.3 mm 1 mps 753 mmHg 86%
    23:00 +6°C° 0.3 mm 2 mps 753 mmHg 87%

    Tomorrow, 26 March, Tuesday

    Time Temperature Precipitation Wind Pressure Humidity
    00:00 +5°C° 0.3 mm 2 mps 753 mmHg 87%
    01:00 +6°C° 0.1 mm 1 mps 753 mmHg 86%
    02:00 +6°C° 0.1 mm 1 mps 753 mmHg 85%
    03:00 +6°C° 0.1 mm 1 mps 753 mmHg 85%
    04:00 +6°C° 0 mm 1 mps 753 mmHg 84%
    05:00 +6°C° 0 mm 1 mps 753 mmHg 84%
    06:00 +6°C° 0 mm 1 mps 753 mmHg 84%
    07:00 +7°C° 0 mm 1 mps 753 mmHg 81%
    08:00 +7°C° 0 mm 1 mps 753 mmHg 78%
    09:00 +8°C° 0 mm 1 mps 753 mmHg 74%
    10:00 +9°C° 0 mm 1 mps 753 mmHg 69%
    11:00 +10°C° 0 mm 1 mps 752 mmHg 64%
    12:00 +10°C° 0 mm 2 mps 752 mmHg 59%
    13:00 +12°C° 0 mm 2 mps 751 mmHg 57%
    14:00 +13°C° 0 mm 2 mps 751 mmHg 55%
    15:00 +13°C° 0 mm 2 mps 751 mmHg 54%
    16:00 +13°C° 0 mm 2 mps 751 mmHg 58%
    17:00 +12°C° 0 mm 1 mps 751 mmHg 62%
    18:00 +11°C° 0 mm 1 mps 750 mmHg 66%
    19:00 +11°C° 0 mm 1 mps 751 mmHg 67%
    20:00 +10°C° 0 mm 1 mps 751 mmHg 68%
    21:00 +10°C° 0 mm 1 mps 751 mmHg 69%
    22:00 +9°C° 0 mm 1 mps 751 mmHg 72%
    23:00 +9°C° 0 mm 1 mps 751 mmHg 75%

    Day after tomorrow, 27 March, Wednesday

    Time Temperature Precipitation Wind Pressure Humidity
    00:00 +9°C° 0 mm 1 mps 750 mmHg 79%
    01:00 +8°C° 0 mm 1 mps 750 mmHg 80%
    02:00 +8°C° 0 mm 1 mps 750 mmHg 81%
    03:00 +7°C° 0 mm 0 mps 749 mmHg 82%
    04:00 +7°C° 0 mm 1 mps 749 mmHg 83%
    05:00 +7°C° 0 mm 1 mps 749 mmHg 84%
    06:00 +7°C° 0 mm 1 mps 749 mmHg 84%
    07:00 +8°C° 0 mm 2 mps 748 mmHg 78%
    08:00 +9°C° 0 mm 3 mps 748 mmHg 71%
    09:00 +11°C° 0 mm 4 mps 748 mmHg 65%
    10:00 +13°C° 0 mm 4 mps 748 mmHg 57%
    11:00 +15°C° 0 mm 4 mps 748 mmHg 49%
    12:00 +17°C° 0 mm 5 mps 748 mmHg 41%
    13:00 +17°C° 0 mm 5 mps 747 mmHg 38%
    14:00 +19°C° 0 mm 5 mps 747 mmHg 36%
    15:00 +20°C° 0 mm 5 mps 747 mmHg 33%
    16:00 +18°C° 0 mm 3 mps 747 mmHg 38%
    17:00 +17°C° 0 mm 2 mps 748 mmHg 43%
    18:00 +16°C° 0 mm 1 mps 748 mmHg 48%
    19:00 +15°C° 0 mm 1 mps 749 mmHg 50%
    20:00 +14°C° 0 mm 1 mps 749 mmHg 53%
    21:00 +13°C° 0 mm 2 mps 750 mmHg 56%
    22:00 +13°C° 0 mm 2 mps 750 mmHg 56%
    23:00 +12°C° 0 mm 2 mps 750 mmHg 57%

    28 March, Thursday

    Time Temperature Precipitation Wind Pressure Humidity
    00:00 +12°C° 0 mm 2 mps 750 mmHg 58%
    01:00 +10°C° 0 mm 2 mps 751 mmHg 59%
    02:00 +11°C° 0 mm 1 mps 751 mmHg 61%
    03:00 +10°C° 0 mm 1 mps 751 mmHg 62%
    04:00 +10°C° 0 mm 1 mps 751 mmHg 64%
    05:00 +9°C° 0 mm 0 mps 752 mmHg 66%
    06:00 +9°C° 0 mm 0 mps 752 mmHg 68%
    07:00 +10°C° 0 mm 0 mps 753 mmHg 63%
    08:00 +13°C° 0 mm 1 mps 753 mmHg 59%
    09:00 +14°C° 0 mm 1 mps 753 mmHg 55%
    10:00 +15°C° 0 mm 1 mps 753 mmHg 55%
    11:00 +15°C° 0 mm 2 mps 753 mmHg 56%
    12:00 +15°C° 0 mm 2 mps 753 mmHg 56%
    13:00 +15°C° 0 mm 2 mps 752 mmHg 56%
    14:00 +15°C° 0 mm 2 mps 752 mmHg 56%
    15:00 +16°C° 0 mm 2 mps 752 mmHg 56%
    16:00 +15°C° 0.2 mm 2 mps 752 mmHg 58%
    17:00 +14°C° 0.2 mm 2 mps 752 mmHg 60%
    18:00 +13°C° 0.2 mm 1 mps 753 mmHg 62%
    19:00 +12°C° 1.2 mm 2 mps 753 mmHg 64%
    20:00 +12°C° 1.2 mm 2 mps 753 mmHg 66%
    21:00 +10°C° 1.2 mm 2 mps 753 mmHg 69%
    22:00 +10°C° 0.8 mm 2 mps 753 mmHg 71%
    23:00 +9°C° 0.8 mm 2 mps 753 mmHg 73%

    29 March, Friday

    Time Temperature Precipitation Wind Pressure Humidity
    00:00 +9°C° 0.8 mm 2 mps 753 mmHg 75%
    01:00 +8°C° 0.3 mm 2 mps 753 mmHg 75%
    02:00 +8°C° 0.3 mm 2 mps 753 mmHg 76%
    03:00 +8°C° 0.3 mm 2 mps 753 mmHg 76%
    04:00 +8°C° 0 mm 2 mps 753 mmHg 76%
    05:00 +8°C° 0 mm 1 mps 753 mmHg 77%
    06:00 +8°C° 0 mm 1 mps 753 mmHg 77%
    07:00 +9°C° 0 mm 1 mps 753 mmHg 70%
    08:00 +11°C° 0 mm 1 mps 753 mmHg 62%
    09:00 +12°C° 0 mm 1 mps 753 mmHg 55%
    10:00 +13°C° 0 mm 1 mps 753 mmHg 51%
    11:00 +14°C° 0 mm 1 mps 752 mmHg 47%
    12:00 +15°C° 0 mm 1 mps 752 mmHg 43%
    13:00 +15°C° 0 mm 1 mps 751 mmHg 43%
    14:00 +15°C° 0 mm 2 mps 751 mmHg 44%
    15:00 +16°C° 0 mm 2 mps 750 mmHg 45%
    16:00 +15°C° 0.1 mm 2 mps 751 mmHg 51%
    17:00 +14°C° 0.1 mm 2 mps 751 mmHg 58%
    18:00 +12°C° 0.1 mm 2 mps 751 mmHg 65%
    19:00 +12°C° 0.7 mm 2 mps 751 mmHg 69%
    20:00 +10°C° 0.7 mm 2 mps 752 mmHg 73%
    21:00 +11°C° 0.7 mm 1 mps 752 mmHg 77%
    22:00 +9°C° 0.8 mm 2 mps 752 mmHg 79%
    23:00 +9°C° 0.8 mm 2 mps 752 mmHg 82%

    30 March, Saturday

    Time Temperature Precipitation Wind Pressure Humidity
    00:00 +8°C° 0.8 mm 3 mps 752 mmHg 84%
    01:00 +8°C° 0.5 mm 3 mps 752 mmHg 83%
    02:00 +8°C° 0.5 mm 3 mps 752 mmHg 82%
    03:00 +8°C° 0.5 mm 3 mps 752 mmHg 81%
    04:00 +7°C° 0.8 mm 2 mps 753 mmHg 81%
    05:00 +7°C° 0.8 mm 2 mps 753 mmHg 81%
    06:00 +7°C° 0.8 mm 2 mps 753 mmHg 82%
    07:00 +7°C° 1.1 mm 2 mps 754 mmHg 83%
    08:00 +8°C° 1.1 mm 1 mps 754 mmHg 84%
    09:00 +8°C° 1.1 mm 1 mps 754 mmHg 85%
    10:00 +8°C° 0.4 mm 1 mps 754 mmHg 85%
    11:00 +9°C° 0.4 mm 1 mps 754 mmHg 85%
    12:00 +9°C° 0.4 mm 1 mps 754 mmHg 85%
    13:00 +10°C° 0.1 mm 1 mps 754 mmHg 82%
    14:00 +10°C° 0.1 mm 1 mps 754 mmHg 79%
    15:00 +11°C° 0.1 mm 1 mps 753 mmHg 75%
    16:00 +10°C° 0.1 mm 1 mps 754 mmHg 80%
    17:00 +10°C° 0.1 mm 1 mps 754 mmHg 84%
    18:00 +9°C° 0.1 mm 1 mps 755 mmHg 88%
    19:00 +9°C° 0.1 mm 1 mps 755 mmHg 89%
    20:00 +9°C° 0.1 mm 1 mps 755 mmHg 89%
    21:00 +9°C° 0.1 mm 1 mps 756 mmHg 90%
    22:00 +9°C° 0.1 mm 1 mps 755 mmHg 89%
    23:00 +9°C° 0.1 mm 1 mps 755 mmHg 89%
    Show more